Weather History for LFMY - October, 2012

Change the Weather History Date:

Friday, October 26, 2012

  Actual Average Record
Temperature  
Mean Temperature 64 °F -  
Max Temperature 68 °F - - ()
Min Temperature 59 °F - - ()
Degree Days  
Heating Degree Days 2    
Growing Degree Days 14 (Base 50)    
Moisture  
Dew Point 59 °F    
Average Humidity 89    
Maximum Humidity 94    
Minimum Humidity 73    
Precipitation  
Precipitation 0.00 in - - ()
Sea Level Pressure  
Sea Level Pressure 29.57 in    
Wind  
Wind Speed 6 mph ()    
Max Wind Speed 20 mph    
Max Gust Speed -    
Visibility 5.5 miles    
Events Rain , Thunderstorm    
T = Trace of Precipitation, MM = Missing Value Source: Averaged Metar Reports

Daily Weather History Graph

Daily Weather History Graph

Search for Another Location

Airport or City:

Trip Planner

Search our weather history database for the weather conditions in past years. The results will help you decide how hot, cold, wet, or windy it might be!

Date:

Astronomy

Oct. 26, 2012 Rise Set
Actual Time 8:07 AM CEST 6:38 PM CEST
Civil Twilight 7:38 AM CEST 7:07 PM CEST
Nautical Twilight 7:04 AM CEST 7:41 PM CEST
Astronomical Twilight 6:31 AM CEST 8:14 PM CEST
Moon 4:50 PM CEST (10/26) 4:43 AM CEST (10/26)
Length of Visible Light 11h 29m
Length of Day
10h 30m
Waxing Gibbous, 89% of the Moon is Illuminated
Oct 26
Waxing Gibbous
Oct 29
Full
Nov 7
Last Quarter
Nov 13
New
Nov 20
First Quarter

Hourly Weather History & Observations

Time (CEST) Temp. Dew Point Humidity Pressure Visibility Wind Dir Wind Speed Gust Speed Precip Events Conditions
12:00 AM 59.0 °F 57.2 °F 94% 29.80 in 5.0 mi NE 3.5 mph - N/A   Overcast
12:30 AM 59.0 °F 57.2 °F 94% 29.80 in 5.6 mi Calm Calm - N/A   Unknown
1:00 AM 59.0 °F 57.2 °F 94% 29.80 in 6.2 mi ENE 5.8 mph - N/A   Unknown
1:30 AM 59.0 °F 57.2 °F 94% 29.80 in 6.2 mi East 5.8 mph - N/A   Unknown
2:00 AM 59.0 °F 55.4 °F 88% 29.77 in 6.2 mi East 4.6 mph - N/A   Overcast
2:30 AM 60.8 °F 57.2 °F 88% 29.77 in 6.2 mi East 6.9 mph - N/A   Unknown
3:00 AM 60.8 °F 57.2 °F 88% 29.77 in 6.2 mi East 4.6 mph - N/A   Unknown
3:30 AM 60.8 °F 57.2 °F 88% 29.77 in 6.2 mi East 3.5 mph - N/A   Unknown
4:00 AM 60.8 °F 59.0 °F 94% 29.74 in 3.7 mi ESE 5.8 mph - N/A Rain Light Rain
4:30 AM 60.8 °F 59.0 °F 94% 29.74 in 3.7 mi East 3.5 mph - N/A Rain Light Rain
5:00 AM 60.8 °F 59.0 °F 94% 29.74 in 5.0 mi ENE 4.6 mph - N/A Rain Light Rain
5:30 AM 60.8 °F 59.0 °F 94% 29.71 in 5.6 mi ENE 3.5 mph - N/A Rain Light Rain
6:00 AM 60.8 °F 59.0 °F 94% 29.71 in 3.1 mi East 6.9 mph - N/A Rain Light Rain
6:30 AM 60.8 °F 59.0 °F 94% 29.71 in - ESE 5.8 mph - N/A Rain Rain
7:00 AM 60.8 °F 59.0 °F 94% 29.71 in 3.1 mi ESE 6.9 mph - N/A Rain Light Rain
7:30 AM 60.8 °F 59.0 °F 94% 29.68 in 3.1 mi East 6.9 mph - N/A Rain Light Rain
8:00 AM 60.8 °F 59.0 °F 94% 29.68 in 5.6 mi ENE 5.8 mph - N/A Rain Light Rain
8:30 AM 60.8 °F 59.0 °F 94% 29.65 in 6.2 mi ENE 6.9 mph - N/A Rain Light Rain
9:00 AM 60.8 °F 59.0 °F 94% 29.65 in 6.2 mi ENE 6.9 mph - N/A   Overcast
9:30 AM 60.8 °F 59.0 °F 94% 29.65 in 6.2 mi East 5.8 mph - N/A   Unknown
10:00 AM 60.8 °F 59.0 °F 94% 29.65 in 6.2 mi ENE 5.8 mph - N/A   Unknown
10:30 AM 60.8 °F 59.0 °F 94% 29.62 in 6.2 mi ENE 8.1 mph - N/A   Unknown
11:00 AM 60.8 °F 59.0 °F 94% 29.62 in 6.2 mi ENE 10.4 mph - N/A Rain Light Rain
11:30 AM 60.8 °F 59.0 °F 94% 29.59 in 6.2 mi ENE 10.4 mph - N/A Rain Light Rain
12:00 PM 62.6 °F 59.0 °F 88% 29.56 in 6.2 mi ENE 10.4 mph - N/A   Overcast
12:30 PM 62.6 °F 59.0 °F 88% 29.56 in 6.2 mi ENE 10.4 mph - N/A   Unknown
1:00 PM 62.6 °F 59.0 °F 88% 29.53 in 6.2 mi East 5.8 mph - N/A   Unknown
1:30 PM 62.6 °F 59.0 °F 88% 29.53 in 2.8 mi Variable 3.5 mph - N/A Rain , Thunderstorm Rain
2:00 PM 60.8 °F 59.0 °F 94% 29.50 in 1.8 mi East 6.9 mph - N/A Rain , Thunderstorm Heavy Thunderstorms and Rain
2:30 PM 59.0 °F 57.2 °F 94% 29.44 in 1.7 mi East 19.6 mph - N/A Rain , Thunderstorm Heavy Thunderstorms and Rain
3:00 PM 64.4 °F 60.8 °F 88% 29.47 in 3.1 mi ENE 13.8 mph - N/A   Partly Cloudy
3:30 PM 68.0 °F 60.8 °F 78% 29.47 in 6.2 mi ESE 11.5 mph - N/A   Unknown
4:00 PM 68.0 °F 59.0 °F 73% 29.44 in 6.2 mi East 11.5 mph - N/A   Unknown
4:30 PM 68.0 °F 59.0 °F 73% 29.42 in 6.2 mi East 10.4 mph - N/A   Unknown
5:00 PM 66.2 °F 59.0 °F 78% 29.42 in 6.2 mi East 11.5 mph - N/A   Overcast
5:30 PM 66.2 °F 60.8 °F 83% 29.42 in 6.2 mi ESE 10.4 mph - N/A   Overcast
6:00 PM 66.2 °F 59.0 °F 78% 29.42 in 6.2 mi ESE 10.4 mph - N/A   Overcast
6:30 PM 64.4 °F 59.0 °F 83% 29.39 in 6.2 mi East 10.4 mph - N/A   Mostly Cloudy
7:00 PM 64.4 °F 59.0 °F 83% 29.39 in 6.2 mi ESE 10.4 mph - N/A   Overcast
7:30 PM 64.4 °F 57.2 °F 77% 29.39 in 6.2 mi ESE 8.1 mph - N/A Thunderstorm Overcast
8:00 PM 64.4 °F 59.0 °F 83% 29.36 in 6.2 mi SE 8.1 mph - N/A   Mostly Cloudy
8:30 PM 64.4 °F 59.0 °F 83% 29.36 in 6.2 mi SSE 8.1 mph - N/A   Mostly Cloudy
9:00 PM 64.4 °F 60.8 °F 88% 29.36 in 6.2 mi SE 6.9 mph - N/A   Mostly Cloudy
9:30 PM 64.4 °F 60.8 °F 88% 29.36 in 6.2 mi SSE 8.1 mph - N/A   Mostly Cloudy
10:00 PM 64.4 °F 60.8 °F 88% 29.36 in 6.2 mi SSE 5.8 mph - N/A   Mostly Cloudy
10:30 PM 64.4 °F 60.8 °F 88% 29.33 in 6.2 mi SSE 5.8 mph - N/A   Mostly Cloudy
11:00 PM 62.6 °F 60.8 °F 94% 29.33 in 6.2 mi SE 5.8 mph - N/A   Mostly Cloudy
11:30 PM 62.6 °F 60.8 °F 94% 29.33 in 6.2 mi SE 4.6 mph - N/A Thunderstorm Thunderstorm